Tracking 27380 objects as of 6-Jun-2023
HD Live streaming from Space Station
objects crossing your sky now

OPS 4682 DEB

Track OPS 4682 DEB now!
10-day predictions


NORAD ID: 18270
Int'l Code: 1965-027Z
Perigee: 1,259.1 km
Apogee: 1,306.8 km
Inclination: 90.3 °
Period: 111.1 minutes
Semi major axis: 7653 km
RCS: 0.0112 m2 (small)
Launch date: April 3, 1965
Source: United States (US)
Launch site: AIR FORCE WESTERN TEST RANGE (AFWTR)

Note: This is SATELLITE DEBRIS
Your satellite tracking list
Your tracking list is empty




NASA's NSSDC Master Catalog

Two Line Element Set (TLE):
1 18270U 65027Z   23156.93388265 -.00000114  00000-0 -42345-3 0  9998
2 18270  90.2527 335.2393 0031155 130.4082  25.5107 12.96499802773070
Source of the keplerian elements: AFSPC